Tegucigalpa, Honduras

6:11 AM CST en Febrero 17, 2019 (GMT -0600)
Toncontin International

Tiempo Historia de MHTG - Febrero, 2019

Change the Weather History Date:

Lunes, Febrero 11, 2019

  Actual Average Record
Temperature  
Temperatura media 70 ° F -  
Temperatura máxima 80 ° F 81 ° F 102 ° F (2006)
Temperatura mínima 60 ° F 58 ° F 35 ° F (2006)
Cooling Degree Days 5    
Growing Degree Days 20 (Base 50)    
Moisture  
Punto de rocío 56 ° F    
Average Humidity 67    
Maximum Humidity 94    
Minimum Humidity 29    
Precipitación  
Precipitación 0.01 pul 0.01 pul - ()
Presión al nivel del mar  
Presión al nivel del mar 30.05 pul    
Viento  
Velocidad del viento 7 mph ()    
Velocidad máxima del viento 14 mph    
Max Gust Speed -    
Visibilidad 6.0 Millas    
Eventos Lluvia    
Averages and records for this station are not official NWS values.
T = Trace of Precipitation, MM = Missing Value Source: Averaged Metar Reports

Daily Weather History Graph

Daily Weather History Graph

Search for Another Location

Airport or City:

Astronomía

Feb. 11, 2019 Salida Puesta
Hora real 6:13 AM CST 5:52 PM CST
Crepúsculo civil 5:51 AM CST 6:14 PM CST
Crepúsculo náutico 5:26 AM CST 6:39 PM CST
Crepúsculo astronómico 5:01 AM CST 7:04 PM CST
Luna 10:42 AM CST (2/11) 11:27 PM CST (2/11)
Horas de luz 12h 22m
Horas de luz
11h 38m
Creciente, 38% of the Moon is Illuminated
Feb 11
Creciente
Feb 12
Cuarto creciente
Feb 19
Luna llena
Feb 26
Cuarto menguante
Mar 6
Nueva

Hourly Weather History & Observations

Hora (CST) Temp. Punto de rocío Humedad Presión Visibilidad Wind Dir Velocidad del viento Velocidad de ráfagas Precip Eventos Condiciones
12:00 AM 65 ° F 57 ° F 68% 30.04 pul 6 mi NNE 9.2 mph - -   Bruma
12:00 AM 64.4 ° F 57.2 ° F 77% 30.12 pul 6.2 mi NNE 9.2 mph - N/A   Nubes dispersas
1:00 AM 64.4 ° F 57.2 ° F 77% 30.09 pul 6.2 mi NNE 9.2 mph - N/A   Muy nublado
2:00 AM 60.8 ° F 59.0 ° F 94% 30.09 pul 5.0 mi Norte 6.9 mph - N/A   Muy nublado
3:00 AM 61 ° F 59 ° F 91% 30.03 pul 5 mi Norte 4.6 mph - - Lluvia Lluvia débil
3:00 AM 60.8 ° F 59.0 ° F 94% 30.06 pul 5.0 mi Norte 4.6 mph - N/A   Muy nublado
4:00 AM 60.8 ° F 57.2 ° F 88% 30.06 pul 5.0 mi ESE 4.6 mph - N/A   Muy nublado
5:00 AM 60.8 ° F 57.2 ° F 88% 30.06 pul 5.0 mi Norte 9.2 mph - N/A   Muy nublado
6:00 AM 61 ° F 57 ° F 84% 30.04 pul 5 mi Norte 6.9 mph - -   Neblina
6:00 AM 60.8 ° F 57.2 ° F 88% 30.09 pul 5.0 mi Norte 6.9 mph - N/A   Muy nublado
7:00 AM 60.8 ° F 57.2 ° F 88% 30.09 pul 4.3 mi Norte 6.9 mph - N/A   Muy nublado
8:00 AM 66.2 ° F 59.0 ° F 78% 30.09 pul 6.2 mi ENE 4.6 mph - N/A   Parcialmente nublado
9:00 AM 69 ° F 56 ° F 55% 30.01 pul 9 mi NE 11.5 mph - -   Bruma
9:00 AM 69.8 ° F 57.2 ° F 64% 30.09 pul - Norte - - N/A   Parcialmente nublado
10:00 AM 73.4 ° F 55.4 ° F 53% 30.09 pul 6.2 mi NE 13.8 mph - N/A   Parcialmente nublado
11:00 AM 73.4 ° F 55.4 ° F 53% 30.09 pul 6.2 mi Este 6.9 mph - N/A   Nubes dispersas
12:00 PM 73.4 ° F 53.6 ° F 50% 30.06 pul 6.2 mi Este 4.6 mph - N/A   Nubes dispersas
1:00 PM 73.4 ° F 53.6 ° F 50% 30.04 pul 6.2 mi Este 6.9 mph - N/A   Nubes dispersas
2:00 PM 75.2 ° F 55.4 ° F 50% 30.01 pul 6.2 mi Este 11.5 mph - N/A   Muy nublado
3:00 PM 79 ° F 53 ° F 29%  pul 9 mi NE 9.2 mph - -  
3:00 PM 78.8 ° F 53.6 ° F 42% 30.01 pul 6.2 mi NE 9.2 mph - N/A   Muy nublado
4:00 PM 77.0 ° F 53.6 ° F 44% 29.98 pul 6.2 mi ENE 6.9 mph - N/A   Nubes dispersas
5:00 PM 75.2 ° F 55.4 ° F 50% 29.98 pul 6.2 mi NE 9.2 mph - N/A   Parcialmente nublado
6:00 PM 72 ° F 55 ° F 44% 29.88 pul 6 mi ENE 6.9 mph - -   Bruma
6:00 PM 71.6 ° F 55.4 ° F 57% 30.01 pul 6.2 mi ENE 6.9 mph - N/A   Parcialmente nublado
7:00 PM 69.8 ° F 55.4 ° F 60% 30.04 pul 6.2 mi ENE 4.6 mph - N/A   Parcialmente nublado
8:00 PM 66.2 ° F 55.4 ° F 68% 30.04 pul 6.2 mi ENE 2.3 mph - N/A   Parcialmente nublado
9:00 PM 64 ° F 55 ° F 64% 30.00 pul 6 mi SSO 3.5 mph - -   Bruma
9:00 PM 64.4 ° F 55.4 ° F 73% 30.06 pul 6.2 mi SSO 3.5 mph - N/A   Parcialmente nublado
10:00 PM 64.4 ° F 55.4 ° F 73% 30.09 pul 6.2 mi Oeste 2.3 mph - N/A   Parcialmente nublado
11:00 PM 60.8 ° F 53.6 ° F 77% 30.09 pul 6.2 mi OSO 4.6 mph - N/A   Parcialmente nublado